WM1R Weather Reports


Display with metric or nautical units.
time (UTC)temp
F
wind
direction
speed
MPH
gust
MPH
rain 1hr
in
rain 24hr
in
rain mn
in
humidity
%
barometer
mb
20260504081516 41 224 1.0 9.0 0.00 0.00 0.00 78 1010.8
20260504050008 39 224 4.0 9.0 0.00 0.00 0.00 56 1010.7
20260504044524 38 205 2.0 7.0 0.00 0.00 0.00 58 1010.8
20260504043024 37 184 2.0 5.0 0.00 0.00 0.00 60 1010.9
20260504041523 38 160 3.0 6.0 0.00 0.00 0.00 59 1010.9
20260504040021 36 191 3.0 7.0 0.00 0.00 0.00 65 1010.7
20260504034512 35 184 3.0 5.0 0.00 0.00 0.00 67 1010.7
20260504033016 36 186 4.0 6.0 0.00 0.00 0.00 65 1010.7
20260504031525 37 202 3.0 7.0 0.00 0.00 0.00 65 1010.8
20260504030024 36 166 3.0 6.0 0.00 0.00 0.00 66 1010.7
20260504024523 36 198 4.0 6.0 0.00 0.00 0.00 66 1010.7
20260504023012 35 182 3.0 4.0 0.00 0.00 0.00 69 1010.9
20260504021520 35 217 2.0 3.0 0.00 0.00 0.00 73 1011.0
20260504020027 35 196 2.0 4.0 0.00 0.00 0.00 70 1010.8
20260504014524 35 180 2.0 3.0 0.00 0.00 0.00 69 1010.7
20260504013031 35 204 2.0 3.0 0.00 0.00 0.00 69 1010.7
20260504011515 35 209 2.0 3.0 0.00 0.00 0.00 69 1010.6
20260504010004 36 218 2.0 3.0 0.00 0.00 0.00 69 1010.6
20260504004504 37 186 2.0 3.0 0.00 0.00 0.00 68 1010.5
20260504003007 39 187 1.0 2.0 0.00 0.00 0.00 59 1010.4
20260504001515 41 238 1.0 4.0 0.00 0.00 0.00 55 1010.1
20260504000019 42 201 2.0 4.0 0.00 0.00 0.00 54 1009.9
20260503234504 42 210 2.0 5.0 0.00 0.00 0.00 53 1009.8
20260503233008 43 232 2.0 9.0 0.00 0.00 0.00 52 1009.7
20260503231519 43 310 5.0 12.0 0.00 0.00 0.00 50 1009.7
20260503230014 43 101 2.0 11.0 0.00 0.00 0.00 51 1009.6
20260503224521 44 240 2.0 14.0 0.00 0.00 0.00 50 1009.6
20260503223005 44 266 2.0 13.0 0.00 0.00 0.00 52 1009.7
20260503221509 43 218 2.0 11.0 0.00 0.00 0.00 53 1009.6
20260503220014 43 220 2.0 9.0 0.00 0.00 0.00 55 1009.4
20260503214519 43 201 3.0 10.0 0.00 0.00 0.00 53 1009.4
20260503213023 44 299 2.0 13.0 0.00 0.00 0.00 54 1009.5
20260503211506 43 188 3.0 7.0 0.00 0.00 0.00 53 1009.5
20260503210015 43 274 3.0 12.0 0.00 0.00 0.00 54 1009.4
20260503204518 44 173 2.0 12.0 0.00 0.00 0.00 51 1009.4
20260503203019 44 187 2.0 11.0 0.00 0.00 0.00 52 1009.2
20260503201524 44 196 3.0 15.0 0.00 0.00 0.00 49 1009.1
20260503200009 45 33 3.0 18.0 0.00 0.00 0.00 48 1008.9
20260503194516 44 308 3.0 17.0 0.00 0.00 0.00 48 1009.0
20260503193020 44 101 2.0 12.0 0.00 0.00 0.00 50 1009.1
20260503191524 44 54 3.0 11.0 0.00 0.00 0.00 48 1009.1
20260503190017 45 254 4.0 13.0 0.00 0.00 0.00 48 1009.1
20260503184513 43 257 5.0 14.0 0.00 0.00 0.00 48 1009.1
20260503183019 44 256 5.0 13.0 0.00 0.01 0.00 48 1009.1
20260503181522 43 26 3.0 10.0 0.00 0.02 0.00 53 1009.0
20260503180036 44 221 6.0 15.0 0.00 0.02 0.00 50 1009.0
20260503174509 44 150 3.0 13.0 0.00 0.02 0.00 48 1008.8
20260503173012 44 271 4.0 13.0 0.00 0.02 0.00 50 1008.8
20260503171532 44 301 4.0 12.0 0.00 0.02 0.00 48 1009.0